User: anonymous   Login
Location: Stoke Bliss
(52.2667°N, 2.5167°W)
Time: 23:10:52
(UTC+00:00)
Language:

Lacrosse 4 Rocket - Orbit

View from above orbital plane
View from above orbital plane
View from above satellite
View from above satellite

Ground track
Ground track

The orbit data is extracted from the following two-line orbital elements,

1 26474U 00047B   21125.43564697  .00000185  00000-0  26794-4 0  9995
2 26474  67.9933 269.2998 0058278 207.8772 151.9245 14.96137908127409
Epoch (UTC): 05 May 2021 10:27:19
Eccentricity: 0.0058278
inclination: 67.9933°
perigee height: 538 km
apogee height: 619 km
right ascension of ascending node: 269.2998°
argument of perigee: 207.8772°
revolutions per day: 14.96137908
mean anomaly at epoch: 151.9245°
orbit number at epoch: 12740

The dashed part of the orbit path shows where the satellite is in the earth's shadow,  

DLR